TimeMDT,TemperatureF,Dew PointF,Humidity,Sea Level PressureIn,VisibilityMPH,Wind Direction,Wind SpeedMPH,Gust SpeedMPH,PrecipitationIn,Events,Conditions,WindDirDegrees,DateUTC
12:52 AM,66.0,35.1,32,29.88,10.0,NNW,5.8,-,N/A,,Partly Cloudy,340,2013-08-08 06:52:00
1:52 AM,64.9,37.0,36,29.88,10.0,Calm,Calm,-,N/A,,Clear,0,2013-08-08 07:52:00
2:52 AM,61.0,32.0,34,29.88,10.0,West,5.8,-,N/A,,Clear,270,2013-08-08 08:52:00
3:52 AM,57.9,34.0,41,29.87,10.0,Calm,Calm,-,N/A,,Clear,0,2013-08-08 09:52:00
4:52 AM,57.0,36.0,45,29.87,10.0,SSW,5.8,-,N/A,,Clear,210,2013-08-08 10:52:00
5:52 AM,57.9,36.0,44,29.87,10.0,SW,9.2,-,N/A,,Clear,220,2013-08-08 11:52:00
6:52 AM,54.0,37.0,53,29.88,10.0,Calm,Calm,-,N/A,,Clear,0,2013-08-08 12:52:00
7:52 AM,59.0,41.0,51,29.89,10.0,SSE,4.6,-,N/A,,Clear,160,2013-08-08 13:52:00
8:52 AM,70.0,41.0,35,29.88,10.0,SSW,11.5,-,N/A,,Clear,200,2013-08-08 14:52:00
9:52 AM,77.0,36.0,23,29.87,10.0,SW,9.2,-,N/A,,Clear,220,2013-08-08 15:52:00
10:52 AM,81.0,27.0,14,29.86,10.0,SSW,13.8,-,N/A,,Clear,200,2013-08-08 16:52:00
11:52 AM,84.0,21.0,10,29.84,10.0,SW,18.4,25.3,N/A,,Clear,230,2013-08-08 17:52:00
12:52 PM,86.0,19.9,9,29.85,10.0,South,12.7,27.6,N/A,,Clear,190,2013-08-08 18:52:00
1:52 PM,88.0,17.1,7,29.83,10.0,South,16.1,25.3,N/A,,Clear,190,2013-08-08 19:52:00
2:52 PM,90.0,12.9,6,29.82,10.0,SW,24.2,32.2,N/A,,Clear,230,2013-08-08 20:52:00
3:52 PM,91.0,10.9,5,29.80,10.0,SW,24.2,34.5,N/A,,Clear,220,2013-08-08 21:52:00
4:52 PM,89.1,9.0,5,29.81,10.0,SW,20.7,35.7,N/A,,Clear,230,2013-08-08 22:52:00
5:52 PM,88.0,10.9,6,29.81,10.0,SW,26.5,36.8,N/A,,Clear,220,2013-08-08 23:52:00
6:52 PM,86.0,12.0,6,29.83,10.0,SW,23.0,33.4,N/A,,Clear,230,2013-08-09 00:52:00
7:52 PM,82.9,12.9,7,29.82,10.0,SW,18.4,27.6,N/A,,Clear,220,2013-08-09 01:52:00
8:52 PM,78.1,14.0,9,29.81,10.0,SW,12.7,-,N/A,,Clear,220,2013-08-09 02:52:00
9:52 PM,66.9,23.0,19,29.84,10.0,SSE,8.1,-,N/A,,Clear,160,2013-08-09 03:52:00
10:52 PM,68.0,21.0,17,29.83,10.0,South,10.4,-,N/A,,Clear,180,2013-08-09 04:52:00
11:52 PM,66.0,21.0,18,29.84,10.0,South,6.9,-,N/A,,Clear,190,2013-08-09 05:52:00